Temperature
13 13 13 12 12 12 12 12 12 12 12 12 12 12 12 12 12 12 12 12 12 12 12 11 11 11 12 12 12 12 12 12 12 11 11 11 11 11 11 11 11 11 12
13 12 12 12 12 12 12 12 12 12 12 12 12 12 12 12 12 12 11 11 11 11 11 11 11 11 11 11 11 11 12 11 11 11 11 11 11 11 11 11 11 11 11
12 12 12 12 12 12 12 12 12 11 11 11 11 11 12 11 11 11 11 11 11 11 11 11 11 11 11 11 11 11 11 11 11 11 11 11 11 11 11 11 11 11 11
12 12 12 12 12 11 11 11 11 11 11 11 11 11 11 11 11 11 11 11 11 11 11 11 11 11 11 11 11 11 11 11 11 10 10 10 10 10 10 10 10 10 10
11 11 11 11 11 11 11 11 11 11 11 11 11 11 11 11 11 11 10 10 10 10 10 10 11 10 11 10 10 10 10 10 10 10 10 10 10 10 10 10 10 10 10
11 11 11 11 11 11 10 10 10 10 10 10 10 10 10 10 10 10 10 10 10 10 10 10 10 10 10 10 10 10 10 10 10 10 10 10 10 10 10 10 10 10 10
10 10 10 10 10 10 10 10 10 10 10 10 10 10 10 10 10 10 10 10 10 10 10 10 10 10 10 10 10 10 10 10 10 10 10 10 10 10 10 9 9 9 10
10 10 10 10 10 10 9 9 9 9 9 9 10 10 10 10 10 10 10 10 10 10 9 9 9 9 10 10 10 9 10 9 9 9 9 10 10 10 9 9 9 9 9
10 9 9 9 9 9 9 9 9 9 9 9 9 9 9 9 9 9 9 9 9 9 9 9 9 9 9 9 9 9 9 9 9 9 9 9 9 9 9 9 9 8 9
9 9 9 9 9 9 8 8 8 8 9 9 8 9 9 9 9 9 9 9 9 9 9 9 9 9 9 9 9 9 9 9 9 9 9 9 9 9 9 8 8 8 8
9 9 9 8 8 8 8 8 8 8 8 8 8 8 8 8 8 8 8 8 8 8 8 8 8 8 8 8 8 8 8 8 8 8 8 8 8 8 8 8 8 8 8
9 9 8 8 8 8 7 7 7 7 8 8 8 8 8 7 7 8 8 8 8 8 8 8 8 8 8 8 8 8 8 8 8 8 8 8 8 8 8 8 8 8 8
8 8 8 7 7 7 7 7 7 7 7 7 7 7 7 7 7 7 7 7 7 7 7 7 7 7 7 7 7 7 7 7 7 7 7 7 7 8 8 8 8 8 8
8 8 7 7 7 7 7 7 7 6 6 6 6 6 6 6 6 7 7 7 7 7 7 7 7 7 7 7 7 7 7 7 7 7 7 7 7 7 7 7 7 7 7
7 7 7 7 7 7 6 6 6 6 6 6 6 6 6 6 6 6 6 6 6 6 6 6 6 6 6 6 6 6 6 6 6 6 6 6 6 7 7 7 7 7 7
7 7 7 6 6 6 6 6 6 5 5 5 5 5 5 5 5 5 5 5 6 6 6 6 6 6 5 5 5 5 5 6 6 6 6 6 6 6 6 6 6 6 6
7 7 6 6 6 6 6 5 5 5 5 5 5 5 5 5 5 5 5 5 5 5 5 5 5 5 5 5 5 5 5 5 5 5 5 5 5 6 6 6 6 6 6
6 6 6 6 6 5 5 5 5 5 5 4 4 4 4 4 4 4 4 4 4 4 4 4 4 4 4 4 4 4 4 5 5 5 5 5 5 5 5 5 5 5 6
6 6 6 5 5 5 5 5 4 4 4 4 4 4 4 4 4 4 4 4 4 4 4 4 4 4 4 4 4 4 4 4 4 4 4 4 4 5 5 5 5 5 5
5 5 5 5 5 5 4 4 4 4 4 4 4 4 4 3 3 3 3 3 3 3 3 3 3 3 4 4 4 3 3 3 4 4 4 4 4 4 4 4 4 4 5
5 5 5 5 4 4 4 4 4 4 3 3 3 3 3 3 3 3 3 3 3 3 3 3 3 3 3 3 3 3 3 3 3 3 3 3 4 4 4 4 4 4 4
5 5 4 4 4 4 4 3 3 3 3 3 3 3 3 3 3 3 3 2 3 2 2 2 2 2 3 3 3 3 3 3 3 3 3 3 3 3 3 3 4 4 4
4 4 4 4 4 3 3 3 3 3 3 3 2 2 2 2 2 2 2 2 2 2 2 2 2 2 2 2 2 2 3 3 3 3 3 3 3 3 3 3 3 3 3
4 4 4 3 3 3 3 3 2 2 2 2 2 2 2 2 2 2 2 2 2 2 2 2 2 2 2 2 2 2 2 2 2 2 3 3 3 3 3 3 3 3 3
3 3 3 3 3 3 2 2 2 2 2 2 2 2 2 2 2 2 2 2 2 2 2 2 2 2 2 2 2 2 2 2 2 2 2 2 2 2 2 2 2 2 2
3 3 3 2 2 2 2 2 2 2 2 2 2 2 2 2 2 2 2 2 2 2 2 2 2 1 1 1 1 2 2 2 2 2 2 2 2 2 2 2 2 2 2
Wind_Speed
2 2 1 1 2 1 1 1 1 0 0 0 1 1 1 1 1 1 1 1 2 2 1 1 1 0 0 1 0 0 1 1 1 0 0 1 2 2 3 3 5 6 6
1 1 1 1 1 1 1 1 1 1 1 1 1 1 1 1 1 1 2 1 2 2 2 1 1 1 0 1 0 1 1 1 2 2 1 1 1 2 3 2 3 5 5
0 1 1 1 2 2 2 2 1 0 1 1 1 1 1 0 0 1 1 2 1 2 2 2 2 2 2 1 1 1 1 1 2 2 2 1 1 1 2 1 1 2 4
0 1 2 1 1 2 2 2 2 1 1 1 1 1 1 1 0 1 2 2 2 2 2 2 2 2 2 2 2 2 1 2 2 2 2 1 1 1 2 2 1 0 1
1 1 2 2 1 2 2 2 2 2 2 1 2 2 0 0 1 1 1 2 2 2 2 2 2 2 1 1 1 2 2 2 2 2 2 1 1 2 2 2 2 1 1
1 1 2 2 2 2 2 2 2 2 2 1 1 1 1 1 1 2 2 2 2 2 2 2 2 2 1 0 1 1 2 3 3 3 3 3 3 3 2 2 2 2 1
1 1 1 2 3 2 2 2 2 2 2 1 1 1 1 0 1 2 3 2 2 2 2 1 1 1 1 1 1 2 2 2 3 3 4 5 4 4 4 3 3 3 3
1 1 1 2 2 3 2 2 1 2 2 2 1 1 1 1 2 3 3 2 2 2 1 1 1 0 1 1 1 1 2 2 3 3 3 5 5 5 6 5 4 3 2
1 1 1 2 2 3 3 3 2 2 2 2 2 1 1 1 1 2 2 1 2 2 2 1 0 0 2 2 1 2 3 3 3 3 3 3 4 5 5 3 2 2 2
0 1 1 2 2 2 3 3 3 2 2 2 2 1 1 0 1 2 1 1 1 2 2 1 2 2 2 2 1 2 3 3 2 2 2 2 2 4 5 4 4 3 2
0 0 0 1 2 2 2 3 3 2 2 2 2 2 1 0 1 2 3 1 1 2 2 1 1 2 2 2 2 2 3 3 2 2 2 2 2 2 3 3 3 4 4
0 0 0 1 2 1 1 2 2 2 2 2 2 2 2 1 2 2 3 3 3 2 2 2 1 2 2 2 2 2 3 2 1 2 2 2 3 3 3 3 4 4 5
1 1 1 1 0 0 0 1 2 2 1 1 1 2 2 2 2 2 3 3 4 2 2 3 3 2 1 1 2 2 1 1 1 2 3 3 3 3 2 2 2 3 4
2 2 2 1 1 1 0 0 1 1 2 2 2 2 2 2 2 1 1 2 3 3 3 3 4 2 1 1 1 1 1 1 1 2 2 2 1 2 2 2 2 2 2
2 2 2 1 1 1 0 0 0 1 1 1 2 1 1 2 3 3 2 1 1 2 2 1 1 1 1 1 1 1 1 1 1 1 1 2 2 1 2 2 2 2 3
2 2 1 0 1 1 1 0 1 1 1 2 2 2 2 2 3 4 3 3 3 3 1 0 1 1 1 1 1 1 1 1 1 1 1 2 2 2 2 1 1 2 3
1 1 1 1 1 1 1 1 1 1 2 2 1 1 2 2 3 3 3 2 3 3 1 1 1 1 1 1 1 1 1 1 1 1 1 2 2 2 1 1 2 2 3
1 1 1 1 1 1 2 2 2 2 1 2 2 2 2 2 2 2 2 2 1 1 1 2 2 1 1 1 1 1 1 1 1 1 1 2 2 2 2 2 2 2 3
1 1 1 1 1 1 1 2 2 1 1 1 1 1 2 2 1 2 1 1 1 1 1 2 2 1 1 1 1 1 2 2 1 1 2 2 3 2 2 2 2 3 3
1 2 2 1 1 2 2 2 1 1 1 1 1 1 1 1 1 1 2 2 2 2 2 2 2 2 1 1 2 2 2 2 2 2 2 3 3 3 3 3 3 3 3
1 2 2 2 2 2 2 2 1 1 1 2 1 1 1 1 2 2 2 2 2 2 2 2 2 2 2 1 1 2 3 2 2 2 3 3 3 3 3 3 3 3 3
1 1 2 1 1 1 2 1 1 1 1 1 1 1 2 1 1 2 2 2 2 1 1 2 2 2 1 1 2 2 2 2 2 2 3 3 3 3 3 3 3 3 3
2 2 1 1 1 1 2 1 1 1 1 1 1 1 1 1 1 1 2 2 2 2 1 1 2 2 1 2 2 2 2 3 3 3 4 4 3 3 4 4 4 4 4
1 2 2 1 1 1 2 2 1 1 1 1 2 2 2 2 2 2 2 2 2 2 2 2 2 3 3 3 3 2 2 3 4 5 4 4 4 4 4 4 4 5 5
1 1 1 1 2 2 2 2 2 2 2 2 2 2 2 2 2 2 2 2 2 3 3 3 2 3 4 4 3 3 4 4 5 5 5 4 4 4 4 4 4 4 4
1 1 1 1 1 1 1 2 2 2 2 2 2 2 2 2 2 2 2 2 2 3 3 3 3 4 4 4 5 5 5 5 5 5 4 4 4 4 4 4 5 4 4
Wind_Direction
20 6 46 45 359 3 359 13 310 307 355 234 240 282 248 226 205 218 220 230 232 207 201 200 199 196 224 248 249 180 144 136 169 218 41 109 95 105 118 132 139 143 151
6 344 28 30 342 360 348 314 299 314 290 276 256 235 247 239 213 215 233 240 246 227 214 213 201 189 187 268 246 214 184 177 162 174 183 120 114 147 133 151 145 149 151
337 333 352 18 356 347 338 327 314 315 282 292 304 284 282 259 266 267 250 247 238 245 232 216 198 176 195 219 223 208 199 176 151 162 176 149 128 139 127 129 122 138 161
24 354 349 343 350 346 332 336 328 324 347 344 339 306 320 342 349 300 278 262 255 250 245 226 206 187 197 204 210 203 179 153 154 155 165 157 163 167 135 143 139 143 195
54 16 336 331 331 339 345 344 350 346 344 346 336 319 303 237 352 359 296 275 257 257 255 239 216 193 206 212 222 193 170 167 167 173 178 173 178 167 190 196 184 190 218
38 26 350 329 342 344 338 343 349 349 341 324 329 348 20 13 14 13 341 287 253 249 256 246 235 197 212 212 245 223 183 181 187 188 199 194 202 193 186 192 183 170 235
47 14 7 350 348 341 331 342 339 342 334 341 331 359 352 359 24 12 347 312 276 269 249 247 274 300 96 154 229 238 243 231 202 194 207 208 197 192 186 200 207 203 221
73 6 7 355 345 340 333 328 338 331 318 323 307 323 327 10 43 19 345 311 289 287 291 248 170 61 357 10 213 225 243 243 228 212 214 221 207 190 186 195 208 216 224
62 9 352 351 342 344 342 336 335 314 314 318 309 318 339 12 50 20 11 301 309 313 311 318 42 153 324 338 227 232 240 251 257 244 226 225 201 177 175 174 188 186 227
31 1 6 350 339 343 342 339 328 314 307 307 311 312 265 139 35 9 6 289 312 318 318 327 355 338 317 308 228 231 239 243 242 248 242 231 201 183 185 187 187 196 208
359 359 20 327 330 353 345 334 328 327 324 321 323 333 333 19 24 6 1 318 283 295 298 303 308 316 310 291 252 234 261 276 228 221 219 210 201 204 206 211 202 198 214
4 264 278 290 313 341 348 333 332 318 305 311 344 349 339 346 13 356 1 348 345 304 290 283 278 301 303 284 254 272 287 291 240 228 221 218 217 223 223 214 222 224 227
255 243 256 253 249 280 316 324 328 325 337 331 342 342 337 339 346 4 341 325 329 319 303 323 310 281 269 253 283 302 290 263 226 228 233 233 230 230 215 218 225 237 255
251 251 245 244 232 218 198 330 354 344 343 337 330 334 339 335 335 332 318 314 323 319 316 332 338 332 298 261 305 304 260 241 218 237 248 255 252 235 222 218 225 218 240
258 259 256 221 219 179 158 289 216 274 250 292 304 301 326 311 322 349 3 333 322 297 318 356 12 10 11 351 352 333 321 311 297 288 275 277 271 247 247 245 227 219 220
265 272 265 224 191 180 182 355 13 256 300 290 276 285 303 319 333 349 357 5 360 350 345 319 303 297 256 291 315 330 323 313 303 303 293 275 267 256 255 281 270 234 234
259 273 261 242 228 227 222 208 260 333 338 322 280 275 276 299 332 334 334 351 359 6 346 284 265 256 266 276 281 275 268 284 295 294 294 295 283 273 263 262 266 268 256
242 265 278 242 236 239 232 232 219 226 269 297 292 272 264 263 297 321 325 354 339 351 288 281 279 271 272 270 275 275 278 278 282 283 284 291 282 275 271 262 254 257 265
266 239 244 253 257 257 250 253 247 252 262 282 321 314 316 298 261 286 304 286 269 273 281 288 284 275 268 287 290 289 286 273 270 275 269 270 274 272 264 258 252 259 255
250 252 260 244 246 248 242 240 234 240 258 263 268 274 309 325 299 281 270 273 275 275 271 275 279 283 278 275 280 279 281 281 275 266 271 273 275 278 272 262 260 261 256
251 247 264 262 239 239 247 244 228 219 246 262 262 266 278 260 253 264 270 280 285 289 290 284 290 290 283 285 291 295 292 286 283 281 277 274 274 276 275 268 260 255 262
239 228 236 242 239 244 255 254 236 221 240 271 283 282 276 276 277 280 287 296 299 300 311 288 279 284 287 275 275 279 284 295 300 293 282 277 278 280 282 274 264 265 265
235 229 226 239 235 234 245 253 251 229 234 257 266 262 257 266 276 287 287 296 306 318 330 316 297 293 300 301 289 273 266 271 287 293 281 268 267 271 273 273 269 269 267
219 213 210 219 220 217 227 233 238 245 245 246 254 253 257 263 273 284 286 291 297 299 290 286 276 271 276 290 289 284 289 300 302 295 282 275 268 264 265 271 269 268 268
215 218 212 208 211 223 229 236 249 259 259 253 254 263 267 264 266 277 290 289 281 278 275 277 281 274 275 278 281 287 292 294 298 298 291 277 272 267 264 266 271 275 271
229 233 225 218 216 223 231 242 253 263 265 262 255 260 266 269 268 276 287 291 288 277 277 280 284 281 282 279 276 282 284 286 291 292 293 282 268 271 274 270 274 277 274
Height
1515 1515 1515 1515 1515 1515 1515 1515 1515 1515 1515 1515 1515 1515 1516 1516 1516 1517 1517 1518 1519 1520 1520 1521 1522 1522 1523 1523 1524 1525 1525 1526 1526 1527 1527 1528 1528 1528 1529 1529 1530 1530 1530
1514 1514 1514 1514 1514 1514 1513 1513 1513 1513 1513 1513 1513 1513 1514 1514 1514 1515 1515 1516 1517 1518 1518 1519 1519 1520 1521 1521 1522 1522 1523 1524 1524 1524 1525 1526 1526 1527 1527 1527 1528 1528 1529
1512 1512 1512 1512 1512 1511 1511 1511 1511 1511 1511 1511 1511 1511 1511 1511 1511 1512 1513 1513 1514 1515 1516 1517 1517 1518 1518 1519 1519 1520 1521 1521 1522 1522 1523 1524 1525 1525 1525 1526 1526 1527 1527
1511 1510 1510 1510 1510 1509 1508 1508 1508 1508 1508 1508 1508 1508 1509 1509 1509 1509 1510 1511 1511 1512 1513 1514 1515 1515 1516 1516 1517 1517 1518 1519 1519 1520 1520 1521 1522 1523 1523 1523 1524 1525 1525
1509 1508 1508 1508 1508 1507 1507 1506 1505 1506 1506 1506 1506 1506 1506 1506 1506 1507 1507 1508 1509 1509 1510 1511 1511 1512 1513 1514 1514 1515 1515 1516 1516 1517 1518 1519 1520 1520 1521 1521 1522 1523 1523
1508 1507 1506 1506 1505 1505 1504 1504 1503 1503 1503 1503 1503 1503 1503 1503 1504 1504 1505 1505 1506 1506 1507 1508 1509 1509 1510 1510 1511 1512 1513 1513 1513 1514 1515 1516 1517 1517 1518 1519 1520 1520 1520
1505 1505 1504 1504 1503 1502 1502 1501 1501 1500 1500 1499 1501 1501 1501 1501 1501 1502 1502 1503 1503 1504 1504 1505 1506 1506 1506 1507 1508 1508 1509 1510 1511 1512 1512 1512 1513 1514 1515 1516 1517 1517 1518
1503 1503 1502 1502 1501 1500 1500 1499 1499 1498 1498 1498 1498 1498 1498 1498 1498 1499 1499 1500 1500 1500 1501 1501 1502 1502 1502 1503 1504 1504 1505 1506 1507 1508 1509 1509 1510 1511 1512 1513 1514 1515 1516
1501 1500 1500 1499 1498 1498 1497 1497 1496 1496 1496 1495 1495 1495 1495 1495 1495 1496 1496 1496 1496 1497 1497 1498 1499 1499 1499 1500 1500 1500 1501 1502 1503 1504 1505 1506 1507 1508 1509 1510 1511 1511 1511
1498 1498 1497 1497 1496 1496 1495 1495 1495 1494 1493 1493 1493 1493 1492 1492 1492 1493 1493 1493 1493 1493 1494 1495 1495 1495 1495 1496 1496 1496 1497 1497 1499 1500 1501 1503 1503 1505 1505 1506 1507 1508 1508
1496 1496 1495 1495 1494 1494 1493 1493 1492 1492 1491 1490 1490 1490 1490 1489 1489 1490 1490 1490 1490 1490 1491 1491 1491 1491 1492 1492 1493 1493 1493 1495 1495 1497 1498 1499 1500 1501 1502 1502 1503 1504 1505
1493 1493 1493 1492 1492 1491 1491 1490 1490 1489 1489 1488 1488 1487 1487 1487 1487 1487 1487 1488 1488 1487 1488 1488 1488 1488 1488 1488 1489 1489 1490 1491 1492 1493 1494 1495 1496 1496 1498 1499 1499 1500 1501
1490 1490 1490 1490 1489 1489 1489 1488 1487 1487 1486 1485 1485 1485 1484 1484 1484 1484 1484 1484 1484 1484 1484 1484 1485 1485 1485 1485 1485 1486 1487 1488 1488 1489 1490 1491 1492 1493 1494 1495 1495 1496 1497
1487 1487 1487 1487 1487 1486 1486 1485 1485 1484 1484 1483 1483 1482 1482 1482 1481 1481 1481 1481 1480 1481 1481 1481 1481 1481 1481 1482 1482 1483 1483 1484 1485 1485 1486 1487 1488 1489 1490 1490 1491 1492 1492
1484 1485 1485 1484 1484 1484 1483 1483 1482 1482 1481 1481 1480 1480 1479 1479 1479 1479 1478 1478 1477 1477 1478 1478 1478 1477 1477 1478 1478 1479 1480 1480 1481 1482 1482 1483 1484 1485 1485 1486 1487 1487 1488
1481 1482 1481 1481 1481 1481 1480 1480 1479 1479 1479 1478 1478 1477 1477 1477 1477 1476 1476 1476 1475 1475 1475 1474 1474 1475 1475 1475 1475 1476 1477 1477 1477 1478 1479 1480 1480 1481 1481 1482 1483 1483 1483
1478 1478 1478 1478 1478 1478 1478 1477 1476 1476 1476 1475 1475 1474 1474 1474 1474 1474 1473 1473 1473 1473 1472 1472 1472 1472 1473 1473 1473 1473 1474 1474 1475 1475 1476 1476 1477 1477 1477 1478 1478 1479 1479
1475 1475 1475 1475 1475 1475 1474 1474 1474 1473 1472 1471 1472 1472 1472 1471 1471 1471 1471 1470 1470 1469 1470 1470 1470 1470 1471 1471 1471 1471 1471 1472 1472 1472 1472 1473 1473 1473 1474 1474 1474 1475 1475
1472 1472 1471 1471 1471 1471 1471 1471 1471 1470 1470 1469 1469 1469 1469 1469 1468 1468 1468 1468 1467 1467 1467 1467 1468 1468 1468 1468 1468 1468 1468 1468 1469 1469 1469 1470 1470 1470 1470 1470 1471 1471 1471
1468 1468 1468 1468 1468 1468 1468 1468 1468 1468 1467 1467 1466 1466 1466 1466 1465 1465 1465 1465 1465 1465 1465 1465 1465 1465 1465 1465 1465 1465 1465 1465 1465 1465 1465 1466 1466 1466 1466 1467 1467 1467 1467
1465 1465 1465 1465 1465 1465 1465 1465 1465 1465 1464 1464 1464 1464 1464 1463 1463 1462 1462 1462 1462 1462 1462 1462 1462 1462 1462 1462 1462 1462 1462 1461 1462 1462 1462 1462 1462 1463 1463 1463 1463 1463 1463
1461 1461 1461 1461 1461 1461 1461 1462 1462 1462 1461 1461 1461 1461 1461 1461 1460 1460 1459 1459 1459 1458 1458 1459 1458 1458 1458 1458 1458 1458 1458 1458 1458 1458 1458 1458 1458 1458 1458 1459 1459 1459 1459
1458 1458 1458 1458 1458 1458 1458 1458 1458 1458 1458 1458 1458 1458 1458 1457 1457 1457 1456 1456 1455 1455 1455 1455 1455 1455 1455 1455 1455 1454 1454 1454 1454 1454 1454 1454 1454 1454 1454 1454 1454 1454 1454
1454 1454 1454 1455 1455 1455 1455 1455 1455 1455 1455 1455 1455 1455 1454 1454 1454 1453 1453 1453 1452 1452 1451 1451 1451 1451 1451 1451 1450 1450 1450 1450 1450 1450 1450 1449 1449 1449 1449 1449 1449 1449 1449
1451 1451 1451 1452 1452 1452 1452 1452 1452 1452 1452 1452 1451 1451 1451 1451 1450 1450 1449 1449 1448 1448 1448 1447 1447 1447 1446 1446 1446 1446 1446 1446 1446 1446 1445 1445 1445 1445 1445 1444 1444 1444 1444
1448 1448 1448 1449 1449 1449 1449 1449 1449 1449 1448 1448 1448 1448 1448 1447 1447 1446 1446 1445 1445 1444 1444 1443 1443 1442 1442 1442 1442 1442 1442 1441 1441 1441 1441 1440 1440 1440 1440 1439 1439 1439 1439